Temperature
16 16 17 17 14 11 12 12 12 11 11 11 11 11 10 10 11 11 10 10 10 10 10 10 11 11 11 11 11 11 12 12 12 12 12 12 12 12 12 12 13 13 13 13 13 13 13 13 13
16 16 17 16 12 12 12 11 11 11 11 11 11 11 10 9 10 10 10 10 10 10 10 10 10 10 11 11 11 11 11 11 11 11 12 12 12 12 12 12 12 13 13 13 13 13 13 13 13
16 16 16 11 10 11 12 11 10 10 11 11 10 10 10 9 10 10 10 10 10 10 10 10 10 10 10 10 11 11 11 11 11 11 11 11 12 12 12 12 12 12 12 12 13 12 12 13 13
16 16 14 10 11 11 11 11 10 9 10 10 10 9 9 9 9 9 9 9 10 10 10 10 10 10 10 10 10 11 11 11 11 11 11 11 11 12 12 12 12 12 12 12 12 12 12 12 13
15 15 11 10 10 10 10 10 10 9 9 9 9 8 8 9 9 9 9 9 9 9 9 9 10 10 10 10 10 10 10 10 11 11 11 11 11 11 11 12 12 12 12 12 12 12 12 12 12
15 11 10 10 11 10 10 10 10 9 9 9 9 8 8 8 9 9 9 9 9 9 9 9 9 9 9 10 10 9 10 10 10 10 11 11 11 11 11 11 11 11 11 11 12 12 12 12 12
13 9 10 10 10 10 10 10 10 8 8 9 9 8 8 8 8 8 8 8 8 9 9 9 9 9 9 9 9 9 9 10 10 10 10 10 11 11 11 11 11 11 11 11 11 11 11 12 12
14 9 10 9 10 10 10 10 10 10 9 9 9 8 8 8 8 8 8 8 8 8 8 8 8 8 9 9 9 9 9 9 9 10 10 10 10 10 10 10 11 11 11 11 11 11 11 11 11
13 9 9 9 10 10 10 9 9 9 9 8 9 9 9 9 8 8 8 8 8 8 8 8 8 8 8 8 8 8 8 9 9 9 9 9 10 10 10 10 10 10 10 10 10 11 11 11 11
11 9 10 10 10 10 9 9 9 8 7 7 7 8 8 8 8 8 8 8 8 8 8 7 7 7 7 7 8 8 8 8 8 8 9 9 9 9 9 9 9 9 10 10 10 10 10 10 10
9 8 9 9 10 10 9 8 8 8 7 7 8 9 8 8 8 7 7 8 8 7 7 7 7 7 7 7 7 7 7 7 8 8 8 8 8 8 8 9 9 9 9 9 9 10 10 10 10
8 8 9 9 10 10 9 8 7 8 9 10 10 9 9 8 8 8 7 7 7 7 7 7 7 7 6 7 7 7 7 7 7 7 7 7 7 8 8 8 8 8 8 9 9 9 9 9 9
8 8 8 8 9 9 8 7 7 7 9 9 9 8 8 8 8 8 7 7 7 7 7 6 6 6 6 6 6 6 6 6 6 7 7 7 7 7 7 7 7 7 8 8 8 8 8 9 9
7 8 8 8 8 8 7 6 6 7 8 8 8 8 7 7 7 7 7 7 7 7 6 6 6 6 6 6 6 6 6 6 6 6 6 6 6 6 6 6 7 7 7 7 7 7 8 8 8
8 7 7 7 7 7 7 6 5 7 7 7 7 7 7 7 7 7 7 7 7 6 6 6 6 6 6 6 6 6 6 5 5 5 5 5 5 5 5 6 6 6 6 6 7 7 7 7 7
8 7 8 7 7 7 7 8 6 7 6 6 6 6 6 7 7 7 7 7 6 6 6 6 6 5 5 5 5 5 5 5 5 5 5 5 5 5 5 5 5 5 6 6 6 6 7 7 7
7 7 7 7 6 6 6 6 6 6 6 5 5 6 6 6 6 6 6 6 6 6 6 6 5 5 5 5 5 5 5 5 4 4 4 4 4 4 4 4 4 5 5 5 5 5 6 6 6
7 7 7 7 6 5 5 5 5 5 5 5 5 5 5 5 6 6 6 6 6 5 5 5 5 5 5 5 4 4 4 4 4 4 4 4 4 4 4 4 4 4 4 4 5 5 5 5 5
7 7 7 6 6 5 5 5 5 4 4 4 4 4 5 5 6 5 5 5 5 5 5 5 4 4 4 4 4 4 4 4 4 3 3 3 3 3 3 3 3 4 4 4 4 4 4 4 4
7 7 6 6 6 5 5 4 4 4 3 4 4 4 4 5 5 5 5 5 5 5 4 4 4 4 4 4 4 4 3 3 3 3 3 3 3 3 3 3 3 3 3 3 3 3 3 3 3
6 6 6 6 5 5 5 5 5 4 3 4 4 4 4 4 5 5 5 5 4 4 4 4 4 4 4 3 3 3 3 3 3 3 2 2 2 2 2 2 2 2 2 2 2 2 2 2 2
6 6 6 5 5 4 5 5 5 4 3 3 3 3 4 4 5 5 4 4 4 4 4 4 3 3 3 3 3 3 3 2 2 2 2 2 2 1 1 1 1 1 1 1 2 1 1 1 1
5 5 5 5 4 4 4 4 5 4 4 4 3 3 4 4 4 4 4 4 4 4 4 3 3 3 2 2 2 2 2 2 1 1 1 1 1 1 1 1 1 1 1 1 1 1 1 1 0
4 4 4 3 3 5 4 4 5 3 4 4 3 3 4 4 4 4 4 4 3 3 3 3 3 2 2 2 2 2 1 1 1 1 1 1 1 1 0 0 0 0 -0 -0 -0 -0 -0 -0 -0
5 5 5 5 4 5 3 3 4 4 3 3 3 3 3 4 3 3 3 3 3 3 2 2 2 2 2 1 1 1 1 1 1 1 0 0 0 0 -0 -0 -0 -0 -1 -1 -1 -1 -1 -1 -1
4 5 6 6 5 4 3 2 3 2 2 2 2 3 3 3 3 3 3 3 3 2 2 2 1 1 1 1 1 0 0 0 -0 -0 -0 -1 -1 -1 -1 -1 -1 -1 -1 -1 -1 -1 -1 -2 -2
4 3 4 3 3 3 3 2 2 2 2 1 1 1 2 2 3 3 2 2 2 2 2 1 1 1 1 0 0 -0 -0 -0 -1 -1 -1 -1 -1 -1 -2 -2 -2 -2 -2 -2 -2 -2 -2 -2 -2
3 3 2 3 4 4 4 3 3 3 2 1 0 0 1 2 2 2 2 2 2 1 1 1 1 0 0 -0 -0 -1 -1 -1 -1 -1 -2 -2 -2 -2 -2 -2 -2 -3 -2 -3 -3 -3 -3 -3 -3
2 3 2 2 3 3 3 4 2 2 1 1 0 0 1 1 1 1 1 1 1 1 0 0 0 -0 -0 -1 -1 -1 -1 -2 -2 -2 -2 -2 -3 -3 -3 -3 -3 -3 -3 -3 -3 -3 -4 -4 -4
2 2 2 3 2 1 2 3 2 0 0 -0 -0 0 1 1 1 1 1 0 0 0 -0 -0 -0 -1 -1 -1 -1 -2 -2 -2 -2 -2 -3 -3 -3 -3 -4 -4 -4 -4 -4 -4 -4 -4 -4 -4 -4
Wind_Speed
6 3 3 4 5 4 2 3 3 2 2 1 2 4 6 5 4 3 0 1 2 3 3 4 6 8 10 11 12 13 13 13 14 14 14 14 13 13 13 13 13 14 14 15 14 14 14 15 15
2 2 5 5 5 2 4 4 4 3 4 5 4 4 5 2 2 3 1 1 3 5 5 5 8 9 10 11 12 12 13 13 13 14 14 14 14 14 14 14 14 14 14 14 14 13 14 14 15
1 4 4 5 4 6 5 4 5 3 4 4 4 3 3 2 2 2 1 2 5 6 7 6 9 10 11 11 12 12 12 12 13 13 13 14 15 14 15 14 14 14 14 14 14 14 14 14 14
3 4 5 4 4 5 4 3 5 6 3 3 5 3 1 2 1 2 4 5 6 6 8 7 9 10 10 11 11 12 12 12 12 13 13 14 14 14 14 14 14 13 13 14 14 14 14 14 14
4 4 3 1 5 4 2 2 5 6 5 3 4 4 1 2 4 5 5 6 6 6 8 8 10 10 10 11 11 11 11 12 13 13 14 14 14 14 14 14 13 13 13 13 13 14 14 14 14
4 4 3 6 6 3 2 3 5 4 4 4 5 4 2 2 4 5 6 6 6 7 8 9 10 10 11 11 11 11 11 12 13 14 14 14 14 14 14 14 13 13 13 12 13 13 13 13 13
4 4 5 6 5 4 4 4 5 6 5 5 6 6 3 3 4 5 6 6 7 8 9 9 10 10 11 11 11 11 12 12 13 13 14 14 14 14 14 14 14 14 13 13 12 12 12 12 13
5 5 3 5 5 5 4 4 3 6 5 3 5 7 5 6 7 7 6 6 6 7 8 8 10 11 11 10 11 11 11 12 12 13 14 14 14 14 14 14 14 14 13 13 12 12 12 12 13
4 3 6 8 7 5 5 4 2 2 6 3 1 2 3 11 10 8 6 5 4 5 5 7 8 9 9 9 10 10 11 11 12 12 12 13 13 13 13 14 14 14 13 13 12 12 12 12 12
3 5 8 4 5 5 5 5 6 5 4 2 1 3 8 11 10 10 8 7 5 4 3 5 6 7 8 8 9 10 9 10 11 11 11 11 11 11 11 13 13 13 13 12 12 12 11 11 11
3 6 4 2 2 4 4 3 5 8 5 7 8 10 11 11 10 9 8 7 6 4 4 4 5 6 7 7 8 8 9 9 10 10 10 10 10 10 11 11 12 12 12 11 11 11 11 10 10
3 2 2 1 2 3 4 5 4 5 5 3 8 13 13 13 12 11 9 7 5 5 4 3 5 6 7 7 7 7 7 8 8 8 9 9 8 9 9 9 10 10 9 9 9 9 10 10 10
3 3 2 1 2 3 3 2 3 3 2 5 9 12 12 12 10 7 7 7 6 6 5 4 4 5 6 6 6 6 6 6 7 8 8 8 7 7 7 8 8 9 9 8 8 8 8 8 8
3 2 1 1 1 1 3 2 2 5 4 8 9 10 10 11 10 8 7 7 7 6 5 4 4 5 6 5 5 5 6 6 7 7 8 8 8 7 7 7 7 8 8 8 8 7 6 6 6
2 1 1 1 3 2 3 3 6 6 7 7 8 9 9 9 9 10 9 8 8 7 6 5 5 5 6 5 5 5 6 7 7 6 7 8 8 7 7 6 6 7 7 7 8 7 7 6 5
1 1 2 3 4 3 4 8 5 6 9 8 8 8 9 8 9 8 8 7 6 7 7 6 5 5 5 5 5 5 6 7 6 6 7 8 8 7 7 6 5 6 7 7 6 5 3 4 4
0 3 5 4 4 4 5 7 4 5 8 8 8 9 9 8 7 7 8 7 7 7 7 6 6 6 5 5 6 6 6 6 6 6 7 7 8 7 7 6 6 7 6 6 5 4 2 3 4
6 5 5 6 3 5 5 8 6 5 7 8 7 8 9 10 9 8 8 7 7 6 6 6 6 6 6 5 5 5 5 5 6 6 6 7 7 7 7 6 6 7 5 5 4 3 3 2 2
5 5 5 4 2 4 8 10 9 7 7 8 9 9 9 9 6 7 8 8 7 7 7 7 6 6 5 4 3 3 2 2 4 5 6 7 7 7 7 6 6 6 5 4 4 3 4 3 3
4 4 5 3 1 3 5 9 8 8 9 9 10 10 10 8 6 7 8 8 8 8 8 7 7 7 6 4 3 2 2 2 2 4 6 7 6 6 6 6 5 5 4 4 4 3 2 3 4
5 7 6 4 2 1 3 7 5 4 5 6 7 8 8 10 10 9 9 9 9 9 9 7 7 7 6 5 5 4 3 2 2 2 3 5 6 6 5 5 5 5 4 3 3 3 3 2 3
6 5 5 4 1 3 1 5 5 4 4 7 8 8 9 9 9 9 10 10 10 9 8 7 7 6 6 6 6 6 3 2 1 1 1 3 5 5 5 5 5 5 4 3 3 3 2 1 2
4 2 3 3 4 2 2 3 7 1 5 7 8 9 9 9 9 10 10 10 8 8 7 7 7 7 6 5 6 6 4 2 2 1 1 2 3 4 4 4 4 4 4 3 3 3 2 1 1
5 5 4 3 3 4 6 6 6 4 6 5 5 6 7 7 8 7 6 6 6 6 6 7 7 6 6 5 5 6 5 4 3 2 1 1 1 3 4 4 4 4 3 3 3 2 1 1 0
4 4 1 1 1 6 4 4 8 5 4 5 5 5 5 6 7 7 8 8 7 7 7 7 7 6 6 6 5 5 5 5 5 3 2 1 1 1 2 3 3 3 3 3 3 2 1 1 1
5 6 5 5 5 3 1 6 6 4 3 3 2 2 3 5 6 7 7 7 7 8 7 7 7 7 6 6 5 4 4 4 2 2 2 1 1 1 1 2 2 2 2 3 2 2 2 1 1
5 4 3 4 1 2 5 5 6 3 3 2 1 1 2 4 5 6 6 6 6 7 7 7 7 6 6 6 5 4 4 4 3 2 2 1 0 0 1 1 2 2 2 2 2 1 1 1 1
2 6 4 4 3 4 5 4 4 5 4 2 1 1 2 3 4 4 5 5 5 5 5 5 6 6 6 5 5 4 4 3 3 3 2 1 0 0 0 1 1 2 2 2 1 2 2 1 2
4 3 4 3 3 4 4 6 4 5 4 3 3 2 2 3 4 4 4 4 5 5 5 5 5 5 4 5 4 4 3 3 3 2 2 1 1 0 1 1 1 2 2 2 1 2 2 2 2
4 5 6 5 4 4 3 6 3 3 2 2 1 0 2 3 3 4 4 4 4 4 4 4 4 4 4 4 4 4 3 3 3 2 2 1 1 1 1 1 1 2 2 2 2 3 3 3 3
Wind_Direction
339 21 72 61 62 61 209 227 181 157 163 135 107 121 134 137 147 162 105 57 67 57 61 58 71 69 66 64 63 61 58 56 53 52 50 50 51 52 53 53 53 54 56 56 57 61 63 65 68
359 53 58 65 107 179 247 217 186 193 156 122 72 81 102 120 80 102 108 29 78 79 73 68 78 73 69 66 64 61 59 56 55 53 51 49 50 51 51 51 51 53 56 56 58 61 63 65 68
81 54 88 91 139 189 211 201 187 141 117 120 102 64 114 140 135 145 151 105 79 72 73 83 81 75 71 67 64 61 58 56 55 54 52 50 49 51 50 51 50 51 55 58 60 63 65 65 67
85 56 63 99 198 218 202 185 154 134 114 88 126 111 76 20 141 139 120 98 86 67 73 87 85 78 74 70 66 62 59 57 57 55 53 52 50 50 50 50 50 49 53 57 59 62 65 64 66
63 87 94 188 229 233 216 170 147 142 151 140 137 133 119 23 88 106 109 96 94 70 70 83 86 81 76 72 68 64 61 59 58 55 54 52 51 49 48 48 47 48 52 57 60 60 62 63 64
69 83 138 212 226 227 209 179 144 138 136 134 138 133 157 119 115 117 109 93 86 78 70 77 83 79 75 73 70 65 61 59 57 54 53 51 50 48 48 45 46 48 51 54 58 59 59 61 61
126 128 184 196 208 222 202 158 156 153 155 176 158 141 161 166 144 124 108 92 81 77 72 69 72 75 75 71 69 65 61 58 55 54 52 50 48 47 46 44 44 45 47 51 54 55 55 58 59
136 131 187 197 192 221 180 153 161 157 165 147 145 156 188 178 142 119 103 93 83 70 68 69 69 70 68 67 67 65 61 59 56 53 51 49 46 45 44 42 43 42 43 47 50 52 54 55 57
110 130 209 204 188 201 165 157 140 110 119 122 137 168 155 137 133 123 111 98 93 80 64 69 68 67 67 67 64 62 59 57 56 54 50 48 45 42 41 41 41 41 41 43 47 49 53 53 53
118 191 217 200 182 172 168 171 161 133 134 158 130 97 124 136 145 146 147 146 137 118 92 68 71 70 71 69 65 61 58 57 57 56 53 52 49 45 42 41 38 38 38 40 42 44 48 49 47
157 195 204 207 166 150 153 164 160 148 191 201 185 163 150 150 156 160 162 159 154 140 115 85 80 80 76 71 68 63 62 58 56 54 53 56 54 50 46 44 37 35 36 38 36 39 42 46 46
158 237 217 215 165 151 161 155 163 188 214 196 168 155 157 162 170 173 169 164 152 139 131 107 93 86 78 78 74 69 65 60 56 52 52 57 54 47 43 42 36 37 38 38 38 39 38 44 45
192 221 231 192 119 129 118 149 181 231 225 119 133 148 162 169 173 173 165 159 154 150 144 135 108 99 90 80 76 71 66 64 61 58 53 57 57 47 44 41 38 36 37 38 36 36 35 39 41
186 175 205 203 168 170 155 204 186 236 157 139 150 165 172 175 174 169 167 168 167 162 157 147 127 110 101 84 76 75 73 68 62 57 54 57 60 56 48 41 36 32 33 37 38 33 36 36 39
141 143 268 220 175 183 145 259 225 207 154 159 171 178 178 181 177 181 181 176 173 167 158 153 137 113 103 93 88 82 77 72 61 55 54 56 59 57 53 46 35 28 31 37 41 34 41 39 36
106 128 238 241 171 175 169 247 229 180 168 184 188 185 186 190 189 187 179 172 167 161 158 155 140 125 110 98 90 85 79 75 66 59 55 54 55 55 55 48 33 28 34 37 38 28 35 32 24
119 217 231 250 193 165 187 240 230 177 180 197 197 192 191 194 194 188 179 174 169 165 159 150 139 136 122 102 91 85 81 74 67 62 56 50 50 51 55 50 35 32 38 36 32 24 36 32 19
209 211 229 231 206 175 212 244 243 198 196 209 205 198 197 200 203 186 176 170 163 160 155 148 140 137 126 106 90 80 72 63 62 58 54 50 47 46 49 49 37 36 37 32 28 24 28 35 11
184 195 230 245 197 193 228 250 251 218 210 218 215 207 206 209 197 175 171 165 160 159 156 153 149 149 138 129 122 108 90 71 53 53 53 50 46 43 47 43 35 34 35 24 21 28 28 22 7
201 217 246 276 192 209 255 264 253 218 213 213 214 213 209 201 186 179 172 168 171 171 167 161 160 160 153 145 135 121 120 96 68 56 51 45 44 44 48 45 36 31 34 29 24 29 24 19 20
218 212 222 234 341 329 309 287 247 231 208 215 216 212 206 201 196 185 180 180 177 177 174 171 168 163 153 139 121 107 86 73 60 52 37 36 43 45 46 45 43 38 41 32 17 26 36 23 14
234 214 202 202 208 278 207 281 271 232 235 228 226 217 214 208 196 187 184 184 183 180 171 165 162 155 149 142 142 140 140 140 164 133 55 32 42 44 43 44 43 38 34 24 8 25 23 40 8
203 135 162 179 178 266 221 231 280 281 250 241 230 219 216 206 193 190 188 183 176 167 163 160 154 151 147 148 151 144 134 132 120 90 70 34 33 38 37 38 42 36 29 21 11 10 25 39 18
136 88 74 76 109 247 207 193 273 234 231 249 239 219 211 199 189 184 170 157 156 156 156 155 153 153 148 151 150 150 149 146 139 126 111 36 22 26 30 32 36 33 26 12 0 1 12 11 21
121 114 48 331 259 247 171 197 249 250 243 246 251 239 214 188 175 169 164 165 165 163 162 159 156 158 156 156 158 160 160 160 164 165 162 146 14 0 1 17 21 19 10 1 3 1 337 319 279
180 165 173 211 228 270 191 230 254 267 283 274 253 225 185 174 168 170 171 170 170 168 164 161 163 165 162 163 166 157 155 157 162 160 155 170 215 277 328 9 12 5 359 353 357 348 329 329 290
155 190 162 137 134 268 260 273 295 287 322 349 1 129 176 170 163 166 164 164 165 167 169 167 167 165 167 169 162 156 155 153 154 148 137 154 206 308 5 7 357 347 349 342 341 328 314 309 299
154 149 118 150 194 252 276 267 261 281 287 315 325 216 189 150 150 154 155 155 157 160 155 156 162 166 168 165 165 163 157 156 149 141 153 161 184 261 323 327 322 327 338 329 333 315 307 315 308
151 154 151 153 175 188 257 268 236 237 235 232 245 228 185 158 152 148 146 141 139 137 143 150 155 155 159 165 160 154 153 148 142 156 171 178 213 241 276 284 292 300 305 306 306 304 300 298 304
185 185 162 176 215 194 206 266 291 247 242 208 238 209 128 133 137 135 131 123 124 133 140 151 155 159 168 167 158 159 152 149 156 169 176 182 208 253 269 275 283 288 293 292 285 287 294 283 286
Height
1498 1500 1502 1504 1509 1522 1526 1522 1519 1520 1521 1521 1522 1523 1525 1528 1532 1537 1534 1532 1533 1535 1536 1537 1538 1538 1538 1538 1538 1538 1538 1538 1537 1537 1537 1537 1537 1537 1537 1537 1537 1537 1536 1536 1537 1537 1537 1538 1538
1498 1500 1503 1504 1516 1527 1525 1519 1519 1518 1519 1520 1522 1523 1524 1527 1528 1530 1530 1531 1533 1535 1536 1537 1538 1538 1538 1538 1538 1538 1538 1538 1538 1538 1537 1537 1537 1537 1537 1537 1537 1537 1537 1537 1537 1538 1538 1538 1539
1498 1500 1503 1507 1519 1522 1518 1516 1516 1517 1519 1519 1522 1523 1525 1526 1527 1528 1530 1531 1533 1534 1535 1536 1537 1538 1538 1538 1538 1538 1538 1538 1538 1538 1538 1537 1537 1537 1537 1537 1537 1538 1538 1537 1538 1538 1539 1539 1540
1498 1501 1503 1512 1517 1516 1513 1513 1514 1516 1518 1519 1521 1524 1525 1527 1527 1528 1530 1531 1533 1534 1535 1536 1537 1537 1538 1538 1538 1538 1539 1538 1538 1538 1538 1538 1538 1538 1538 1537 1538 1538 1538 1538 1539 1539 1539 1540 1540
1498 1499 1508 1517 1515 1513 1512 1512 1513 1515 1517 1519 1520 1523 1524 1526 1526 1528 1529 1531 1532 1533 1534 1535 1536 1537 1538 1538 1538 1538 1538 1538 1538 1538 1538 1538 1538 1538 1538 1538 1538 1538 1539 1539 1539 1539 1540 1540 1540
1497 1499 1513 1516 1512 1511 1511 1511 1513 1514 1516 1518 1520 1522 1523 1525 1526 1528 1529 1531 1532 1533 1534 1535 1536 1536 1537 1537 1538 1538 1538 1538 1538 1538 1538 1538 1538 1538 1538 1538 1538 1538 1539 1539 1539 1539 1540 1540 1541
1496 1503 1510 1511 1511 1511 1510 1510 1512 1513 1515 1517 1518 1521 1522 1524 1525 1527 1529 1530 1532 1533 1534 1534 1535 1536 1537 1537 1537 1537 1537 1537 1537 1537 1537 1537 1537 1537 1537 1538 1538 1538 1539 1539 1539 1539 1540 1540 1540
1494 1502 1508 1510 1510 1508 1507 1508 1509 1511 1513 1515 1517 1518 1520 1522 1524 1526 1528 1530 1531 1532 1533 1534 1535 1535 1536 1536 1537 1537 1537 1537 1537 1537 1537 1537 1537 1537 1537 1537 1537 1538 1538 1538 1538 1539 1539 1540 1540
1494 1503 1506 1506 1506 1505 1505 1507 1509 1510 1511 1513 1514 1515 1517 1519 1522 1525 1527 1528 1530 1531 1532 1533 1534 1535 1535 1535 1536 1536 1536 1536 1536 1536 1536 1536 1536 1537 1536 1536 1537 1537 1537 1537 1538 1538 1538 1539 1539
1493 1502 1500 1499 1500 1501 1503 1504 1506 1509 1510 1511 1512 1513 1515 1518 1520 1522 1524 1525 1527 1529 1531 1532 1533 1534 1534 1535 1535 1535 1536 1536 1536 1536 1536 1536 1536 1536 1536 1536 1536 1536 1536 1536 1537 1537 1537 1538 1538
1493 1497 1497 1498 1498 1499 1502 1504 1505 1506 1509 1507 1507 1510 1513 1516 1518 1521 1523 1524 1526 1528 1529 1531 1532 1533 1533 1534 1534 1534 1535 1535 1535 1535 1535 1535 1535 1535 1535 1535 1535 1535 1535 1535 1535 1536 1536 1536 1537
1494 1496 1496 1497 1498 1499 1500 1502 1504 1504 1503 1504 1506 1508 1510 1513 1515 1518 1520 1523 1525 1526 1528 1530 1531 1532 1533 1533 1534 1534 1534 1534 1534 1534 1534 1534 1534 1534 1534 1534 1534 1534 1534 1534 1534 1534 1534 1535 1535
1493 1495 1496 1496 1497 1498 1500 1501 1502 1501 1502 1503 1504 1506 1508 1511 1514 1517 1519 1522 1523 1525 1527 1528 1530 1531 1532 1532 1533 1533 1533 1533 1533 1533 1533 1533 1533 1533 1533 1533 1533 1533 1533 1533 1533 1533 1533 1533 1534
1492 1494 1495 1496 1497 1498 1499 1501 1501 1499 1500 1501 1503 1505 1507 1509 1512 1514 1517 1519 1521 1523 1525 1526 1528 1529 1530 1531 1532 1532 1532 1532 1532 1532 1532 1532 1532 1532 1531 1532 1532 1532 1532 1531 1531 1531 1531 1532 1532
1492 1494 1495 1495 1496 1498 1499 1500 1498 1497 1499 1500 1501 1503 1505 1507 1510 1512 1514 1516 1519 1521 1523 1525 1526 1528 1529 1530 1530 1531 1531 1531 1531 1531 1531 1531 1531 1531 1531 1530 1530 1530 1530 1530 1530 1530 1529 1530 1530
1493 1495 1496 1494 1495 1496 1501 1497 1494 1495 1496 1497 1499 1501 1503 1505 1507 1510 1512 1515 1517 1519 1521 1523 1525 1526 1527 1528 1529 1530 1530 1530 1530 1530 1530 1530 1530 1530 1529 1529 1529 1529 1529 1528 1528 1528 1528 1528 1528
1495 1497 1495 1494 1493 1495 1497 1494 1492 1493 1494 1495 1496 1498 1500 1502 1505 1507 1510 1512 1515 1517 1519 1521 1522 1524 1525 1526 1527 1528 1529 1529 1529 1529 1529 1529 1529 1528 1528 1528 1527 1527 1527 1526 1526 1526 1525 1525 1526
1493 1495 1494 1494 1492 1495 1496 1493 1490 1491 1492 1492 1494 1495 1497 1499 1501 1504 1507 1510 1512 1515 1517 1518 1520 1522 1523 1524 1525 1526 1527 1527 1528 1528 1527 1527 1527 1527 1527 1526 1526 1526 1525 1525 1525 1524 1524 1524 1523
1488 1491 1493 1492 1491 1494 1493 1491 1488 1488 1490 1490 1491 1492 1493 1495 1499 1501 1504 1506 1509 1512 1514 1515 1517 1519 1520 1522 1522 1523 1524 1525 1526 1526 1526 1526 1526 1526 1525 1525 1525 1525 1524 1524 1523 1522 1522 1522 1521
1488 1490 1492 1492 1492 1493 1493 1489 1485 1484 1485 1485 1486 1488 1489 1492 1495 1497 1499 1502 1505 1508 1510 1512 1514 1516 1518 1519 1520 1522 1522 1523 1524 1524 1524 1524 1524 1524 1524 1524 1524 1523 1523 1522 1522 1521 1520 1520 1519
1487 1489 1490 1492 1493 1493 1494 1486 1482 1480 1481 1481 1483 1484 1485 1487 1489 1492 1495 1498 1501 1504 1506 1509 1511 1513 1515 1517 1518 1519 1520 1521 1522 1522 1522 1522 1523 1523 1522 1522 1522 1522 1521 1521 1520 1520 1519 1519 1519
1485 1486 1488 1491 1495 1497 1496 1492 1479 1479 1479 1478 1478 1479 1480 1483 1485 1488 1491 1494 1497 1500 1503 1506 1508 1511 1512 1514 1515 1516 1517 1518 1519 1520 1520 1521 1521 1521 1521 1520 1520 1520 1519 1519 1519 1519 1518 1517 1517
1484 1485 1488 1490 1494 1499 1498 1497 1481 1479 1477 1474 1474 1475 1476 1479 1481 1484 1487 1490 1494 1497 1500 1503 1505 1507 1509 1511 1513 1514 1515 1516 1517 1518 1518 1518 1519 1519 1519 1519 1518 1518 1517 1517 1517 1516 1516 1516 1515
1483 1487 1491 1494 1497 1496 1493 1496 1483 1479 1473 1470 1470 1471 1472 1475 1478 1481 1485 1488 1491 1494 1497 1500 1502 1504 1507 1508 1510 1512 1513 1514 1514 1515 1515 1516 1516 1516 1516 1516 1516 1515 1515 1515 1514 1514 1514 1513 1513
1483 1488 1491 1491 1496 1490 1492 1492 1482 1472 1470 1469 1468 1469 1470 1473 1476 1479 1481 1484 1488 1491 1494 1497 1499 1501 1504 1506 1507 1509 1510 1511 1512 1512 1513 1513 1513 1513 1514 1513 1513 1512 1512 1512 1512 1511 1511 1511 1510
1482 1482 1487 1489 1490 1491 1494 1492 1477 1470 1468 1467 1467 1467 1468 1471 1473 1476 1479 1482 1485 1488 1491 1494 1496 1498 1501 1503 1505 1506 1508 1509 1509 1510 1510 1511 1511 1511 1511 1511 1510 1510 1510 1509 1509 1508 1508 1507 1507
1482 1485 1484 1491 1496 1498 1491 1486 1476 1467 1466 1466 1466 1466 1467 1469 1472 1475 1478 1481 1483 1486 1488 1491 1493 1496 1498 1500 1502 1503 1505 1506 1507 1507 1508 1508 1508 1508 1508 1508 1507 1507 1506 1506 1506 1505 1504 1504 1503
1480 1483 1489 1490 1488 1488 1484 1484 1478 1469 1467 1467 1467 1466 1467 1469 1471 1474 1476 1479 1482 1484 1486 1489 1491 1493 1495 1497 1499 1500 1502 1503 1504 1504 1505 1505 1505 1505 1505 1504 1504 1503 1503 1503 1502 1501 1501 1500 1499
1482 1484 1484 1488 1488 1489 1488 1480 1471 1468 1466 1467 1466 1466 1467 1469 1471 1473 1475 1478 1480 1482 1484 1486 1488 1490 1492 1494 1496 1497 1499 1500 1501 1501 1502 1502 1502 1502 1501 1501 1500 1500 1499 1499 1498 1497 1497 1495 1495
1478 1478 1481 1484 1487 1492 1492 1481 1467 1467 1465 1466 1466 1467 1468 1469 1470 1472 1474 1476 1478 1480 1482 1484 1486 1488 1490 1491 1493 1494 1496 1497 1498 1498 1499 1499 1499 1499 1498 1498 1497 1496 1496 1495 1494 1493 1492 1491 1491